Location: Drignac
(45.1667°N, 2.0333°E)
Time: 13:35:55
(UTC+00:00)

SJ-6B - Pass Details

Date: 29 March 2020
Orbit: 509 x 582 km, 97.6° (Epoch: 02 June)

Event Time Altitude Azimuth Distance (km) Brightness Sun altitude
Exits shadow 19:43:24 - 172° (S) 1,966 5.3 -15.6°
Reaches altitude 10° 19:43:40 10° 173° (S) 1,859 5.2 -15.7°
Maximum altitude 19:47:42 73° 258° (WSW) 603 3.1 -16.3°
Drops below altitude 10° 19:51:50 10° 344° (NNW) 1,903 6.1 -17.0°
Sets 19:54:01 0° 346° (NNW) 2,812 7.0 -17.4°
